Weather History for 94368 - April, 2013

Change the Weather History Date:

Monday, April 8, 2013

  Actual Average Record
Temperature  
Mean Temperature 72 °F -  
Max Temperature 77 °F - - ()
Min Temperature 68 °F - - ()
Cooling Degree Days 8    
Growing Degree Days 22 (Base 50)    
Moisture  
Dew Point 72 °F    
Average Humidity 93    
Maximum Humidity 100    
Minimum Humidity 78    
Precipitation  
Precipitation 1.26 in - - ()
Sea Level Pressure  
Sea Level Pressure 30.00 in    
Wind  
Wind Speed 24 mph ()    
Max Wind Speed 36 mph    
Max Gust Speed 41 mph    
T = Trace of Precipitation, MM = Missing Value Source: Averaged Metar Reports

Daily Weather History Graph

Daily Weather History Graph

Search for Another Location

Airport or City:

Trip Planner

Search our weather history database for the weather conditions in past years. The results will help you decide how hot, cold, wet, or windy it might be!

Date:

Astronomy

Apr. 08, 2013 Rise Set
Actual Time 6:13 AM AEST 5:58 PM AEST
Civil Twilight 5:51 AM AEST 6:20 PM AEST
Nautical Twilight 5:25 AM AEST 6:46 PM AEST
Astronomical Twilight 4:59 AM AEST 7:12 PM AEST
Moon 4:00 AM AEST (4/8) 4:22 PM AEST (4/8)
Length of Visible Light 12h 29m
Length of Day
11h 45m
Waning Crescent, 6% of the Moon is Illuminated
Apr 8
Waning Crescent
Apr 10
New
Apr 18
First Quarter
Apr 26
Full
May 2
Last Quarter

Hourly Weather History & Observations

Time (AEST) Temp. Dew Point Humidity Pressure Visibility Wind Dir Wind Speed Gust Speed Precip Events Conditions
12:00 AM 71 °F - % 30.03 in - ESE 26.5 mph - -  
12:00 AM 71.6 °F 71.6 °F 100% 30.01 in - ESE 26.5 mph - N/A   Unknown
12:30 AM 73.4 °F 71.6 °F 94% 30.01 in - ESE 24.2 mph - N/A   Unknown
1:00 AM 73.4 °F 69.8 °F 88% 29.98 in - SE 25.3 mph - N/A   Unknown
1:30 AM 73.4 °F 69.8 °F 88% 29.98 in - ESE 29.9 mph - N/A   Unknown
2:00 AM 73.4 °F 68.0 °F 83% 29.98 in - SE 25.3 mph - N/A   Unknown
2:30 AM 73.4 °F 68.0 °F 83% 29.98 in - SE 26.5 mph - N/A   Unknown
3:00 AM 74 °F 69 °F 80% 29.97 in - ESE 26.5 mph - -  
3:00 AM 75.2 °F 69.8 °F 83% 29.98 in - ESE 26.5 mph - N/A   Unknown
3:30 AM 75.2 °F 68.0 °F 78% 29.95 in - SE 25.3 mph - N/A   Unknown
4:00 AM 75.2 °F 69.8 °F 83% 29.95 in - SE 27.6 mph - N/A   Unknown
4:30 AM 73.4 °F 71.6 °F 94% 29.95 in - SE 25.3 mph - N/A   Unknown
5:00 AM 73.4 °F 71.6 °F 94% 29.95 in - SSE 26.5 mph - N/A   Unknown
5:30 AM 71.6 °F 71.6 °F 100% 29.98 in - SSE 21.9 mph - N/A   Unknown
6:00 AM 72 °F - % 29.98 in - SE 25.3 mph - -  
6:00 AM - - N/A% 29.98 in - SE 25.3 mph - N/A   Unknown
6:30 AM 71.6 °F 71.6 °F 100% 29.98 in - SSE 26.5 mph - N/A   Unknown
7:00 AM 71.6 °F 71.6 °F 100% 30.01 in - SSE 23.0 mph - N/A   Unknown
7:30 AM - - N/A% 30.01 in - SSE 25.3 mph - N/A   Unknown
8:00 AM 71.6 °F 71.6 °F 100% 30.01 in - SSE 26.5 mph - N/A   Unknown
8:30 AM 73.4 °F 71.6 °F 94% 30.01 in - SSE 23.0 mph - N/A   Unknown
9:00 AM 74 °F 73 °F 95% 30.02 in - SSE 24.2 mph - -  
9:00 AM 73.4 °F 73.4 °F 100% 30.01 in - SSE 24.2 mph - N/A   Unknown
9:30 AM 77.0 °F 73.4 °F 89% 30.01 in - SE 23.0 mph - N/A   Unknown
10:00 AM 75.2 °F 73.4 °F 94% 30.04 in - SSE 21.9 mph - N/A   Unknown
10:30 AM 77.0 °F 73.4 °F 89% 30.01 in - SSE 24.2 mph - N/A   Unknown
11:00 AM 77.0 °F 73.4 °F 89% 30.01 in - SE 24.2 mph - N/A   Unknown
11:30 AM 77.0 °F 73.4 °F 89% 30.01 in - SE 27.6 mph - N/A   Unknown
12:00 PM 76 °F 73 °F 88% 30.01 in - SSE 24.2 mph - -  
12:00 PM 77.0 °F 73.4 °F 89% 30.01 in - SSE 24.2 mph - N/A   Unknown
12:30 PM 75.2 °F 73.4 °F 94% 30.01 in - SSE 23.0 mph - N/A   Unknown
1:00 PM 75.2 °F 73.4 °F 94% 29.98 in - SSE 24.2 mph - N/A   Unknown
1:23 PM 73.4 °F 71.6 °F 94% 29.98 in - South 13.8 mph 25.3 mph N/A   Unknown
1:30 PM 73.4 °F 73.4 °F 100% 29.98 in - SSE 21.9 mph - N/A   Unknown
2:00 PM 75.2 °F 73.4 °F 94% 29.95 in - SSE 25.3 mph - N/A   Unknown
2:30 PM 75.2 °F 73.4 °F 94% 29.95 in - SSE 26.5 mph - N/A   Unknown
3:00 PM 76 °F 73 °F 88% 29.95 in - SSE 28.8 mph - -  
3:00 PM 77.0 °F 73.4 °F 89% 29.95 in - SSE 28.8 mph - N/A   Unknown
3:30 PM 77.0 °F 73.4 °F 89% 29.95 in - SE 25.3 mph - N/A   Unknown
4:00 PM 75.2 °F 73.4 °F 94% 29.95 in - SE 28.8 mph - N/A   Unknown
4:30 PM 75.2 °F 73.4 °F 94% 29.95 in - SE 26.5 mph - N/A   Unknown
5:00 PM 77.0 °F 73.4 °F 89% 29.95 in - SE 26.5 mph - N/A   Unknown
5:30 PM 77.0 °F 71.6 °F 83% 29.98 in - SE 27.6 mph - N/A   Unknown
6:00 PM 74 °F 72 °F 90% 29.99 in - SSE 26.5 mph - -  
6:00 PM 73.4 °F 71.6 °F 94% 29.98 in - SSE 26.5 mph - N/A   Unknown
6:30 PM 73.4 °F 73.4 °F 100% 30.01 in - SE 24.2 mph - N/A   Unknown
7:00 PM 75.2 °F 73.4 °F 94% 30.01 in - SE 27.6 mph - N/A   Unknown
7:30 PM 75.2 °F 73.4 °F 94% 30.01 in - SE 27.6 mph - N/A   Unknown
8:00 PM 75.2 °F 73.4 °F 94% 30.04 in - SE 28.8 mph - N/A   Unknown
8:30 PM 73.4 °F 73.4 °F 100% 30.04 in - SE 24.2 mph - N/A   Unknown
8:57 PM 73.4 °F 73.4 °F 100% 30.04 in - East 32.2 mph - N/A   Unknown
9:00 PM 71 °F 71 °F 99% 30.03 in - East 33.4 mph - -  
9:00 PM 71.6 °F 71.6 °F 100% 30.01 in - East 33.4 mph - N/A   Unknown
9:22 PM - - N/A% 30.04 in - East 28.8 mph 41.4 mph N/A   Unknown
9:30 PM 71.6 °F 71.6 °F 100% 30.01 in - East 35.7 mph - N/A   Unknown
9:54 PM 71.6 °F 71.6 °F 100% 30.04 in - East 24.2 mph - N/A   Unknown
10:00 PM - - N/A% 30.04 in - East 24.2 mph - N/A   Unknown
10:30 PM - - N/A% 30.04 in - ESE 25.3 mph - N/A   Unknown
11:00 PM - - N/A% 30.04 in - ESE 21.9 mph - N/A   Unknown
11:30 PM - - N/A% 30.04 in - East 20.7 mph - N/A   Unknown